Year,Month,Day,Hour,Minute,Value (Times are PST for temperature in C)
2012,09,20,00,00,12.40
2012,09,20,00,01,12.40
2012,09,20,00,02,12.40
2012,09,20,00,03,12.40
2012,09,20,00,04,12.40
2012,09,20,00,05,12.40
2012,09,20,00,06,12.40
2012,09,20,00,07,12.30
2012,09,20,00,08,12.30
2012,09,20,00,09,12.30
2012,09,20,00,10,12.20
2012,09,20,00,11,12.20
2012,09,20,00,12,12.20
2012,09,20,00,13,12.20
2012,09,20,00,14,12.10
2012,09,20,00,15,12.10
2012,09,20,00,16,12.10
2012,09,20,00,17,12.10
2012,09,20,00,18,12.00
2012,09,20,00,19,12.00
2012,09,20,00,20,11.90
2012,09,20,00,21,11.90
2012,09,20,00,22,11.90
2012,09,20,00,23,11.80
2012,09,20,00,24,11.80
2012,09,20,00,25,11.80
2012,09,20,00,26,11.80
2012,09,20,00,27,11.80
2012,09,20,00,28,11.80
2012,09,20,00,29,11.80
2012,09,20,00,30,11.80
2012,09,20,00,31,11.90
2012,09,20,00,32,11.90
2012,09,20,00,33,11.90
2012,09,20,00,34,11.80
2012,09,20,00,35,11.80
2012,09,20,00,36,11.80
2012,09,20,00,37,11.80
2012,09,20,00,38,11.80
2012,09,20,00,39,11.80
2012,09,20,00,40,11.80
2012,09,20,00,41,11.80
2012,09,20,00,42,11.70
2012,09,20,00,43,11.70
2012,09,20,00,44,11.70
2012,09,20,00,45,11.70
2012,09,20,00,46,11.60
2012,09,20,00,47,11.60
2012,09,20,00,48,11.60
2012,09,20,00,49,11.60
2012,09,20,00,50,11.50
2012,09,20,00,51,11.50
2012,09,20,00,52,11.40
2012,09,20,00,53,11.40
2012,09,20,00,54,11.40
2012,09,20,00,55,11.40
2012,09,20,00,56,11.40
2012,09,20,00,57,11.30
2012,09,20,00,58,11.30
2012,09,20,00,59,11.30
2012,09,20,01,00,11.30
2012,09,20,01,01,11.30
2012,09,20,01,02,11.30
2012,09,20,01,03,11.30
2012,09,20,01,04,11.30
2012,09,20,01,05,11.30
2012,09,20,01,06,11.20
2012,09,20,01,07,11.20
2012,09,20,01,08,11.20
2012,09,20,01,09,11.20
2012,09,20,01,10,11.20
2012,09,20,01,11,11.20
2012,09,20,01,12,11.20
2012,09,20,01,13,11.20
2012,09,20,01,14,11.20
2012,09,20,01,15,11.20
2012,09,20,01,16,11.20
2012,09,20,01,17,11.20
2012,09,20,01,18,11.20
2012,09,20,01,19,11.20
2012,09,20,01,20,11.20
2012,09,20,01,21,11.20
2012,09,20,01,22,11.20
2012,09,20,01,23,11.10
2012,09,20,01,24,11.10
2012,09,20,01,25,11.10
2012,09,20,01,26,11.10
2012,09,20,01,27,11.00
2012,09,20,01,28,11.00
2012,09,20,01,29,11.00
2012,09,20,01,30,11.00
2012,09,20,01,31,10.90
2012,09,20,01,32,10.90
2012,09,20,01,33,10.90
2012,09,20,01,34,10.90
2012,09,20,01,35,10.90
2012,09,20,01,36,10.90
2012,09,20,01,37,10.90
2012,09,20,01,38,10.90
2012,09,20,01,39,10.90
2012,09,20,01,40,10.90
2012,09,20,01,41,10.90
2012,09,20,01,42,10.90
2012,09,20,01,43,10.90
2012,09,20,01,44,10.90
2012,09,20,01,45,10.90
2012,09,20,01,46,10.90
2012,09,20,01,47,10.90
2012,09,20,01,48,10.90
2012,09,20,01,49,10.90
2012,09,20,01,50,10.90
2012,09,20,01,51,10.90
2012,09,20,01,52,10.90
2012,09,20,01,53,10.90
2012,09,20,01,54,10.80
2012,09,20,01,55,10.90
2012,09,20,01,56,10.90
2012,09,20,01,57,10.80
2012,09,20,01,58,10.80
2012,09,20,01,59,10.80
2012,09,20,02,00,10.80
2012,09,20,02,01,10.80
2012,09,20,02,02,10.80
2012,09,20,02,03,10.90
2012,09,20,02,04,10.90
2012,09,20,02,05,10.90
2012,09,20,02,06,10.90
2012,09,20,02,07,10.90
2012,09,20,02,08,11.00
2012,09,20,02,09,11.10
2012,09,20,02,10,11.10
2012,09,20,02,11,11.20
2012,09,20,02,12,11.20
2012,09,20,02,13,11.30
2012,09,20,02,14,11.30
2012,09,20,02,15,11.30
2012,09,20,02,16,11.30
2012,09,20,02,17,11.30
2012,09,20,02,18,11.30
2012,09,20,02,19,11.20
2012,09,20,02,20,11.20
2012,09,20,02,21,11.20
2012,09,20,02,22,11.10
2012,09,20,02,23,11.00
2012,09,20,02,24,11.00
2012,09,20,02,25,10.90
2012,09,20,02,26,10.90
2012,09,20,02,27,10.80
2012,09,20,02,28,10.80
2012,09,20,02,29,10.80
2012,09,20,02,30,10.70
2012,09,20,02,31,10.70
2012,09,20,02,32,10.70
2012,09,20,02,33,10.60
2012,09,20,02,34,10.60
2012,09,20,02,35,10.60
2012,09,20,02,36,10.50
2012,09,20,02,37,10.50
2012,09,20,02,38,10.50
2012,09,20,02,39,10.50
2012,09,20,02,40,10.50
2012,09,20,02,41,10.40
2012,09,20,02,42,10.40
2012,09,20,02,43,10.40
2012,09,20,02,44,10.40
2012,09,20,02,45,10.40
2012,09,20,02,46,10.40
2012,09,20,02,47,10.40
2012,09,20,02,48,10.40
2012,09,20,02,49,10.30
2012,09,20,02,50,10.30
2012,09,20,02,51,10.30
2012,09,20,02,52,10.30
2012,09,20,02,53,10.30
2012,09,20,02,54,10.30
2012,09,20,02,55,10.30
2012,09,20,02,56,10.30
2012,09,20,02,57,10.30
2012,09,20,02,58,10.30
2012,09,20,02,59,10.30
2012,09,20,03,00,10.20
2012,09,20,03,01,10.20
2012,09,20,03,02,10.20
2012,09,20,03,06,10.20
2012,09,20,03,07,10.20
2012,09,20,03,08,10.20
2012,09,20,03,09,10.20
2012,09,20,03,10,10.20
2012,09,20,03,11,10.10
2012,09,20,03,12,10.10
2012,09,20,03,13,10.10
2012,09,20,03,14,10.10
2012,09,20,03,15,10.00
2012,09,20,03,16,10.00
2012,09,20,03,17,10.00
2012,09,20,03,18,10.00
2012,09,20,03,19,10.00
2012,09,20,03,20,9.90
2012,09,20,03,21,9.90
2012,09,20,03,22,9.90
2012,09,20,03,23,9.90
2012,09,20,03,24,9.90
2012,09,20,03,25,9.80
2012,09,20,03,26,9.80
2012,09,20,03,27,9.80
2012,09,20,03,28,9.80
2012,09,20,03,29,9.80
2012,09,20,03,30,9.80
2012,09,20,03,31,9.80
2012,09,20,03,32,9.80
2012,09,20,03,33,9.80
2012,09,20,03,34,9.70
2012,09,20,03,35,9.80
2012,09,20,03,36,9.80
2012,09,20,03,37,9.80
2012,09,20,03,38,9.70
2012,09,20,03,39,9.70
2012,09,20,03,40,9.70
2012,09,20,03,41,9.70
2012,09,20,03,42,9.70
2012,09,20,03,43,9.70
2012,09,20,03,44,9.70
2012,09,20,03,45,9.70
2012,09,20,03,46,9.60
2012,09,20,03,47,9.60
2012,09,20,03,48,9.60
2012,09,20,03,49,9.60
2012,09,20,03,50,9.60
2012,09,20,03,51,9.60
2012,09,20,03,52,9.60
2012,09,20,03,53,9.60
2012,09,20,03,54,9.60
2012,09,20,03,55,9.60
2012,09,20,03,56,9.60
2012,09,20,03,57,9.60
2012,09,20,03,58,9.60
2012,09,20,03,59,9.60
2012,09,20,04,00,9.60
2012,09,20,04,01,9.50
2012,09,20,04,02,9.50
2012,09,20,04,03,9.50
2012,09,20,04,04,9.50
2012,09,20,04,05,9.50
2012,09,20,04,06,9.50
2012,09,20,04,07,9.50
2012,09,20,04,08,9.40
2012,09,20,04,09,9.40
2012,09,20,04,10,9.40
2012,09,20,04,11,9.40
2012,09,20,04,12,9.40
2012,09,20,04,13,9.40
2012,09,20,04,14,9.40
2012,09,20,04,15,9.30
2012,09,20,04,16,9.30
2012,09,20,04,17,9.30
2012,09,20,04,18,9.30
2012,09,20,04,19,9.50
2012,09,20,04,20,9.70
2012,09,20,04,21,9.90
2012,09,20,04,22,10.10
2012,09,20,04,23,10.30
2012,09,20,04,24,10.50
2012,09,20,04,25,10.70
2012,09,20,04,26,10.90
2012,09,20,04,27,11.00
2012,09,20,04,28,11.10
2012,09,20,04,29,11.20
2012,09,20,04,30,11.30
2012,09,20,04,31,11.40
2012,09,20,04,32,11.40
2012,09,20,04,33,11.40
2012,09,20,04,34,11.50
2012,09,20,04,35,11.50
2012,09,20,04,36,11.50
2012,09,20,04,37,11.50
2012,09,20,04,38,11.50
2012,09,20,04,39,11.60
2012,09,20,04,40,11.60
2012,09,20,04,41,11.60
2012,09,20,04,42,11.50
2012,09,20,04,43,11.50
2012,09,20,04,44,11.50
2012,09,20,04,45,11.40
2012,09,20,04,46,11.40
2012,09,20,04,47,11.40
2012,09,20,04,48,11.40
2012,09,20,04,49,11.40
2012,09,20,04,50,11.40
2012,09,20,04,51,11.40
2012,09,20,04,52,11.40
2012,09,20,04,53,11.40
2012,09,20,04,54,11.40
2012,09,20,04,55,11.40
2012,09,20,04,56,11.40
2012,09,20,04,57,11.30
2012,09,20,04,58,11.30
2012,09,20,04,59,11.30
2012,09,20,05,00,11.30
2012,09,20,05,01,11.30
2012,09,20,05,02,11.30
2012,09,20,05,03,11.30
2012,09,20,05,04,11.30
2012,09,20,05,05,11.30
2012,09,20,05,06,11.20
2012,09,20,05,07,11.20
2012,09,20,05,08,11.20
2012,09,20,05,09,11.20
2012,09,20,05,10,11.20
2012,09,20,05,11,11.20
2012,09,20,05,12,11.20
2012,09,20,05,13,11.10
2012,09,20,05,14,11.10
2012,09,20,05,15,11.10
2012,09,20,05,16,11.10
2012,09,20,05,17,11.10
2012,09,20,05,18,11.00
2012,09,20,05,19,11.00
2012,09,20,05,20,11.00
2012,09,20,05,21,10.90
2012,09,20,05,22,10.90
2012,09,20,05,23,10.80
2012,09,20,05,24,10.80
2012,09,20,05,25,10.70
2012,09,20,05,26,10.70
2012,09,20,05,27,10.70
2012,09,20,05,28,10.70
2012,09,20,05,29,10.60
2012,09,20,05,30,10.60
2012,09,20,05,31,10.60
2012,09,20,05,32,10.60
2012,09,20,05,33,10.60
2012,09,20,05,34,10.60
2012,09,20,05,35,10.60
2012,09,20,05,36,10.60
2012,09,20,05,37,10.70
2012,09,20,05,38,10.70
2012,09,20,05,39,10.70
2012,09,20,05,40,10.70
2012,09,20,05,41,10.70
2012,09,20,05,42,10.70
2012,09,20,05,43,10.70
2012,09,20,05,44,10.70
2012,09,20,05,45,10.70
2012,09,20,05,46,10.60
2012,09,20,05,47,10.60
2012,09,20,05,48,10.50
2012,09,20,05,49,10.50
2012,09,20,05,50,10.40
2012,09,20,05,51,10.40
2012,09,20,05,52,10.30
2012,09,20,05,53,10.30
2012,09,20,05,54,10.30
2012,09,20,05,55,10.30
2012,09,20,05,56,10.20
2012,09,20,05,57,10.20
2012,09,20,05,58,10.20
2012,09,20,05,59,10.20
2012,09,20,06,00,10.10
2012,09,20,06,01,10.10
2012,09,20,06,02,10.10
2012,09,20,06,03,10.10
2012,09,20,06,04,10.00
2012,09,20,06,05,10.00
2012,09,20,06,06,10.00
2012,09,20,06,07,9.90
2012,09,20,06,08,9.90
2012,09,20,06,09,9.90
2012,09,20,06,10,9.90
2012,09,20,06,11,9.90
2012,09,20,06,12,9.80
2012,09,20,06,13,9.80
2012,09,20,06,14,9.80
2012,09,20,06,15,9.80
2012,09,20,06,16,9.70
2012,09,20,06,17,9.70
2012,09,20,06,18,9.70
2012,09,20,06,19,9.70
2012,09,20,06,20,9.60
2012,09,20,06,21,9.60
2012,09,20,06,22,9.60
2012,09,20,06,23,9.60
2012,09,20,06,24,9.50
2012,09,20,06,25,9.50
2012,09,20,06,26,9.50
2012,09,20,06,27,9.50
2012,09,20,06,28,9.40
2012,09,20,06,29,9.40
2012,09,20,06,30,9.40
2012,09,20,06,31,9.40
2012,09,20,06,32,9.40
2012,09,20,06,33,9.40
2012,09,20,06,34,9.40
2012,09,20,06,35,9.30
2012,09,20,06,36,9.30
2012,09,20,06,37,9.30
2012,09,20,06,38,9.30
2012,09,20,06,39,9.30
2012,09,20,06,40,9.30
2012,09,20,06,41,9.30
2012,09,20,06,42,9.30
2012,09,20,06,43,9.30
2012,09,20,06,44,9.30
2012,09,20,06,45,9.30
2012,09,20,06,46,9.40
2012,09,20,06,47,9.40
2012,09,20,06,48,9.40
2012,09,20,06,49,9.40
2012,09,20,06,50,9.40
2012,09,20,06,51,9.40
2012,09,20,06,52,9.40
2012,09,20,06,53,9.40
2012,09,20,06,54,9.40
2012,09,20,06,55,9.40
2012,09,20,06,56,9.40
2012,09,20,06,57,9.40
2012,09,20,06,58,9.40
2012,09,20,06,59,9.40
2012,09,20,07,00,9.40
2012,09,20,07,01,9.40
2012,09,20,07,02,9.40
2012,09,20,07,03,9.40
2012,09,20,07,04,9.30
2012,09,20,07,05,9.30
2012,09,20,07,06,9.30
2012,09,20,07,07,9.30
2012,09,20,07,08,9.30
2012,09,20,07,09,9.30
2012,09,20,07,10,9.30
2012,09,20,07,11,9.30
2012,09,20,07,12,9.30
2012,09,20,07,13,9.30
2012,09,20,07,14,9.30
2012,09,20,07,15,9.30
2012,09,20,07,16,9.30
2012,09,20,07,17,9.30
2012,09,20,07,18,9.30
2012,09,20,07,19,9.40
2012,09,20,07,20,9.40
2012,09,20,07,21,9.40
2012,09,20,07,22,9.40
2012,09,20,07,23,9.40
2012,09,20,07,24,9.40
2012,09,20,07,25,9.30
2012,09,20,07,26,9.30
2012,09,20,07,27,9.30
2012,09,20,07,28,9.30
2012,09,20,07,29,9.20
2012,09,20,07,30,9.20
2012,09,20,07,31,9.20
2012,09,20,07,32,9.10
2012,09,20,07,33,9.10
2012,09,20,07,34,9.10
2012,09,20,07,35,9.10
2012,09,20,07,36,9.10
2012,09,20,07,37,9.10
2012,09,20,07,38,9.00
2012,09,20,07,39,9.00
2012,09,20,07,40,9.00
2012,09,20,07,41,9.00
2012,09,20,07,42,9.00
2012,09,20,07,43,9.00
2012,09,20,07,44,9.00
2012,09,20,07,45,9.00
2012,09,20,07,46,9.00
2012,09,20,07,47,9.00
2012,09,20,07,48,9.00
2012,09,20,07,49,9.00
2012,09,20,07,50,9.10
2012,09,20,07,51,9.00
2012,09,20,07,52,9.10
2012,09,20,07,53,9.10
2012,09,20,07,54,9.10
2012,09,20,07,55,9.10
2012,09,20,07,56,9.10
2012,09,20,07,57,9.10
2012,09,20,07,58,9.10
2012,09,20,07,59,9.10
2012,09,20,08,00,9.10
2012,09,20,08,01,9.10
2012,09,20,08,02,9.10
2012,09,20,08,03,9.10
2012,09,20,08,04,9.20
2012,09,20,08,05,9.20
2012,09,20,08,06,9.30
2012,09,20,08,07,9.30
2012,09,20,08,08,9.30
2012,09,20,08,09,9.30
2012,09,20,08,10,9.30
2012,09,20,08,11,9.30
2012,09,20,08,12,9.30
2012,09,20,08,13,9.40
2012,09,20,08,14,9.40
2012,09,20,08,15,9.40
2012,09,20,08,16,9.50
2012,09,20,08,17,9.60
2012,09,20,08,18,9.60
2012,09,20,08,19,9.70
2012,09,20,08,20,9.70
2012,09,20,08,21,9.80
2012,09,20,08,22,9.80
2012,09,20,08,23,9.80
2012,09,20,08,24,9.90
2012,09,20,08,25,10.00
2012,09,20,08,26,10.00
2012,09,20,08,27,10.10
2012,09,20,08,28,10.10
2012,09,20,08,29,10.20
2012,09,20,08,30,10.20
2012,09,20,08,31,10.30
2012,09,20,08,32,10.30
2012,09,20,08,33,10.40
2012,09,20,08,34,10.40
2012,09,20,08,35,10.50
2012,09,20,08,36,10.50
2012,09,20,08,37,10.60
2012,09,20,08,38,10.60
2012,09,20,08,39,10.70
2012,09,20,08,40,10.70
2012,09,20,08,41,10.80
2012,09,20,08,42,10.90
2012,09,20,08,43,11.00
2012,09,20,08,44,11.10
2012,09,20,08,45,11.10
2012,09,20,08,46,11.20
2012,09,20,08,47,11.40
2012,09,20,08,48,11.50
2012,09,20,08,49,11.70
2012,09,20,08,50,11.90
2012,09,20,08,51,12.10
2012,09,20,08,52,12.30
2012,09,20,08,53,12.50
2012,09,20,08,54,12.60
2012,09,20,08,55,12.70
2012,09,20,08,56,12.80
2012,09,20,08,57,13.00
2012,09,20,08,58,13.10
2012,09,20,08,59,13.20
2012,09,20,09,00,13.30
2012,09,20,09,01,13.40
2012,09,20,09,02,13.40
2012,09,20,09,03,13.40
2012,09,20,09,04,13.50
2012,09,20,09,05,13.50
2012,09,20,09,06,13.50
2012,09,20,09,07,13.60
2012,09,20,09,08,13.60
2012,09,20,09,09,13.70
2012,09,20,09,10,13.70
2012,09,20,09,11,13.70
2012,09,20,09,12,13.80
2012,09,20,09,13,13.80
2012,09,20,09,14,13.80
2012,09,20,09,15,13.90
2012,09,20,09,16,13.90
2012,09,20,09,17,13.90
2012,09,20,09,18,14.00
2012,09,20,09,19,14.10
2012,09,20,09,20,14.10
2012,09,20,09,21,14.20
2012,09,20,09,22,14.20
2012,09,20,09,23,14.30
2012,09,20,09,24,14.30
2012,09,20,09,25,14.40
2012,09,20,09,26,14.50
2012,09,20,09,27,14.50
2012,09,20,09,28,14.60
2012,09,20,09,29,14.70
2012,09,20,09,30,14.70
2012,09,20,09,31,14.80
2012,09,20,09,32,14.90
2012,09,20,09,33,14.90
2012,09,20,09,34,15.00
2012,09,20,09,35,15.10
2012,09,20,09,36,15.20
2012,09,20,09,37,15.30
2012,09,20,09,38,15.30
2012,09,20,09,39,15.40
2012,09,20,09,40,15.50
2012,09,20,09,41,15.60
2012,09,20,09,42,15.70
2012,09,20,09,43,15.70
2012,09,20,09,44,15.80
2012,09,20,09,45,15.80
2012,09,20,09,46,15.90
2012,09,20,09,47,15.90
2012,09,20,09,48,15.90
2012,09,20,09,49,16.00
2012,09,20,09,50,16.00
2012,09,20,09,51,16.10
2012,09,20,09,52,16.10
2012,09,20,09,53,16.10
2012,09,20,09,54,16.20
2012,09,20,09,55,16.30
2012,09,20,09,56,16.30
2012,09,20,09,57,16.40
2012,09,20,09,58,16.50
2012,09,20,09,59,16.50
2012,09,20,10,00,16.60
2012,09,20,10,01,16.70
2012,09,20,10,02,16.80
2012,09,20,10,03,16.90
2012,09,20,10,04,17.00
2012,09,20,10,05,17.10
2012,09,20,10,06,17.20
2012,09,20,10,07,17.30
2012,09,20,10,08,17.40
2012,09,20,10,09,17.50
2012,09,20,10,10,17.60
2012,09,20,10,11,17.60
2012,09,20,10,12,17.70
2012,09,20,10,13,17.80
2012,09,20,10,14,17.80
2012,09,20,10,15,17.90
2012,09,20,10,16,18.00
2012,09,20,10,17,18.00
2012,09,20,10,18,18.00
2012,09,20,10,19,18.00
2012,09,20,10,20,18.00
2012,09,20,10,21,18.00
2012,09,20,10,22,17.90
2012,09,20,10,23,18.00
2012,09,20,10,24,18.00
2012,09,20,10,25,18.10
2012,09,20,10,26,18.10
2012,09,20,10,27,18.20
2012,09,20,10,28,18.20
2012,09,20,10,29,18.20
2012,09,20,10,30,18.20
2012,09,20,10,31,18.20
2012,09,20,10,32,18.20
2012,09,20,10,33,18.20
2012,09,20,10,34,18.20
2012,09,20,10,35,18.30
2012,09,20,10,36,18.30
2012,09,20,10,37,18.30
2012,09,20,10,38,18.30
2012,09,20,10,39,18.30
2012,09,20,10,40,18.40
2012,09,20,10,41,18.40
2012,09,20,10,42,18.50
2012,09,20,10,43,18.50
2012,09,20,10,44,18.60
2012,09,20,10,45,18.60
2012,09,20,10,46,18.60
2012,09,20,10,47,18.60
2012,09,20,10,48,18.70
2012,09,20,10,49,18.80
2012,09,20,10,50,18.80
2012,09,20,10,51,18.90
2012,09,20,10,52,18.90
2012,09,20,10,53,19.00
2012,09,20,10,54,19.00
2012,09,20,10,55,19.10
2012,09,20,10,56,19.20
2012,09,20,10,57,19.20
2012,09,20,10,58,19.30
2012,09,20,10,59,19.30
2012,09,20,11,00,19.30
2012,09,20,11,01,19.40
2012,09,20,11,02,19.30
2012,09,20,11,03,19.30
2012,09,20,11,04,19.30
2012,09,20,11,05,19.20
2012,09,20,11,06,19.30
2012,09,20,11,07,19.30
2012,09,20,11,08,19.30
2012,09,20,11,09,19.20
2012,09,20,11,10,19.10
2012,09,20,11,11,19.00
2012,09,20,11,12,18.90
2012,09,20,11,13,18.90
2012,09,20,11,14,18.80
2012,09,20,11,15,18.80
2012,09,20,11,16,18.80
2012,09,20,11,17,18.80
2012,09,20,11,18,18.80
2012,09,20,11,19,18.70
2012,09,20,11,20,18.60
2012,09,20,11,21,18.60
2012,09,20,11,22,18.60
2012,09,20,11,23,18.60
2012,09,20,11,24,18.60
2012,09,20,11,25,18.60
2012,09,20,11,26,18.60
2012,09,20,11,27,18.70
2012,09,20,11,28,18.70
2012,09,20,11,29,18.70
2012,09,20,11,30,18.70
2012,09,20,11,31,18.70
2012,09,20,11,32,18.70
2012,09,20,11,33,18.70
2012,09,20,11,34,18.70
2012,09,20,11,35,18.70
2012,09,20,11,36,18.70
2012,09,20,11,37,18.70
2012,09,20,11,38,18.70
2012,09,20,11,39,18.80
2012,09,20,11,40,18.80
2012,09,20,11,41,18.80
2012,09,20,11,42,18.90
2012,09,20,11,43,18.90
2012,09,20,11,44,18.90
2012,09,20,11,45,18.90
2012,09,20,11,46,18.90
2012,09,20,11,47,18.90
2012,09,20,11,48,18.90
2012,09,20,11,49,18.90
2012,09,20,11,50,18.90
2012,09,20,11,51,18.90
2012,09,20,11,52,18.90
2012,09,20,11,53,19.00
2012,09,20,11,54,19.00
2012,09,20,11,55,19.00
2012,09,20,11,56,19.10
2012,09,20,11,57,19.10
2012,09,20,11,58,19.20
2012,09,20,11,59,19.20
2012,09,20,12,00,19.30
2012,09,20,12,01,19.30
2012,09,20,12,02,19.30
2012,09,20,12,03,19.30
2012,09,20,12,04,19.30
2012,09,20,12,05,19.30
2012,09,20,12,06,19.40
2012,09,20,12,07,19.40
2012,09,20,12,08,19.50
2012,09,20,12,09,19.50
2012,09,20,12,10,19.40
2012,09,20,12,11,19.40
2012,09,20,12,12,19.40
2012,09,20,12,13,19.50
2012,09,20,12,14,19.50
2012,09,20,12,15,19.50
2012,09,20,12,16,19.50
2012,09,20,12,17,19.50
2012,09,20,12,18,19.50
2012,09,20,12,19,19.50
2012,09,20,12,20,19.60
2012,09,20,12,21,19.60
2012,09,20,12,22,19.70
2012,09,20,12,23,19.70
2012,09,20,12,24,19.60
2012,09,20,12,25,19.60
2012,09,20,12,26,19.60
2012,09,20,12,27,19.60
2012,09,20,12,28,19.60
2012,09,20,12,29,19.70
2012,09,20,12,30,19.70
2012,09,20,12,31,19.70
2012,09,20,12,32,19.80
2012,09,20,12,33,19.80
2012,09,20,12,34,19.90
2012,09,20,12,35,19.90
2012,09,20,12,36,20.00
2012,09,20,12,37,20.10
2012,09,20,12,38,20.20
2012,09,20,12,39,20.20
2012,09,20,12,40,20.20
2012,09,20,12,41,20.20
2012,09,20,12,42,20.20
2012,09,20,12,43,20.20
2012,09,20,12,44,20.20
2012,09,20,12,45,20.20
2012,09,20,12,46,20.20
2012,09,20,12,47,20.20
2012,09,20,12,48,20.20
2012,09,20,12,49,20.20
2012,09,20,12,50,20.20
2012,09,20,12,51,20.20
2012,09,20,12,52,20.20
2012,09,20,12,53,20.20
2012,09,20,12,54,20.20
2012,09,20,12,55,20.20
2012,09,20,12,56,20.20
2012,09,20,12,57,20.20
2012,09,20,12,58,20.30
2012,09,20,12,59,20.30
2012,09,20,13,00,20.40
2012,09,20,13,01,20.40
2012,09,20,13,02,20.50
2012,09,20,13,03,20.60
2012,09,20,13,04,20.60
2012,09,20,13,05,20.70
2012,09,20,13,06,20.70
2012,09,20,13,07,20.70
2012,09,20,13,08,20.70
2012,09,20,13,09,20.70
2012,09,20,13,10,20.70
2012,09,20,13,11,20.70
2012,09,20,13,12,20.70
2012,09,20,13,13,20.70
2012,09,20,13,14,20.70
2012,09,20,13,15,20.70
2012,09,20,13,16,20.70
2012,09,20,13,17,20.80
2012,09,20,13,18,21.00
2012,09,20,13,19,21.10
2012,09,20,13,20,21.20
2012,09,20,13,21,21.20
2012,09,20,13,22,21.20
2012,09,20,13,23,21.30
2012,09,20,13,24,21.30
2012,09,20,13,25,21.30
2012,09,20,13,26,21.20
2012,09,20,13,27,21.20
2012,09,20,13,28,21.20
2012,09,20,13,29,21.20
2012,09,20,13,30,21.10
2012,09,20,13,31,21.10
2012,09,20,13,32,21.00
2012,09,20,13,33,21.00
2012,09,20,13,34,21.00
2012,09,20,13,35,21.00
2012,09,20,13,36,21.10
2012,09,20,13,37,21.30
2012,09,20,13,38,21.40
2012,09,20,13,39,21.50
2012,09,20,13,40,21.60
2012,09,20,13,41,21.80
2012,09,20,13,42,21.90
2012,09,20,13,43,22.00
2012,09,20,13,44,22.00
2012,09,20,13,45,22.00
2012,09,20,13,46,22.00
2012,09,20,13,47,22.00
2012,09,20,13,48,21.90
2012,09,20,13,49,21.90
2012,09,20,13,50,21.80
2012,09,20,13,51,21.90
2012,09,20,13,52,21.90
2012,09,20,13,53,21.80
2012,09,20,13,54,21.80
2012,09,20,13,55,21.80
2012,09,20,13,56,21.90
2012,09,20,13,57,22.00
2012,09,20,13,58,22.10
2012,09,20,13,59,22.10
2012,09,20,14,00,22.10
2012,09,20,14,01,22.00
2012,09,20,14,02,22.00
2012,09,20,14,03,22.00
2012,09,20,14,04,22.00
2012,09,20,14,05,22.00
2012,09,20,14,06,22.10
2012,09,20,14,07,22.20
2012,09,20,14,08,22.20
2012,09,20,14,09,22.30
2012,09,20,14,10,22.30
2012,09,20,14,11,22.20
2012,09,20,14,12,22.20
2012,09,20,14,13,22.10
2012,09,20,14,14,22.10
2012,09,20,14,15,22.00
2012,09,20,14,16,22.00
2012,09,20,14,17,22.00
2012,09,20,14,18,22.00
2012,09,20,14,19,22.10
2012,09,20,14,20,22.20
2012,09,20,14,21,22.20
2012,09,20,14,22,22.30
2012,09,20,14,23,22.30
2012,09,20,14,24,22.30
2012,09,20,14,25,22.40
2012,09,20,14,26,22.50
2012,09,20,14,27,22.60
2012,09,20,14,28,22.60
2012,09,20,14,29,22.60
2012,09,20,14,30,22.60
2012,09,20,14,31,22.60
2012,09,20,14,32,22.70
2012,09,20,14,33,22.70
2012,09,20,14,34,22.70
2012,09,20,14,35,22.80
2012,09,20,14,36,22.80
2012,09,20,14,37,22.90
2012,09,20,14,38,23.00
2012,09,20,14,39,23.10
2012,09,20,14,40,23.20
2012,09,20,14,41,23.20
2012,09,20,14,42,23.10
2012,09,20,14,43,23.00
2012,09,20,14,44,22.90
2012,09,20,14,45,22.80
2012,09,20,14,46,22.80
2012,09,20,14,47,22.80
2012,09,20,14,48,22.80
2012,09,20,14,49,22.90
2012,09,20,14,50,22.90
2012,09,20,14,51,22.90
2012,09,20,14,52,22.90
2012,09,20,14,53,22.90
2012,09,20,14,54,22.70
2012,09,20,14,55,22.60
2012,09,20,14,56,22.50
2012,09,20,14,57,22.40
2012,09,20,14,58,22.40
2012,09,20,14,59,22.30
2012,09,20,15,00,22.30
2012,09,20,15,01,22.30
2012,09,20,15,02,22.40
2012,09,20,15,03,22.40
2012,09,20,15,04,22.40
2012,09,20,15,05,22.30
2012,09,20,15,06,22.40
2012,09,20,15,07,22.40
2012,09,20,15,08,22.40
2012,09,20,15,09,22.40
2012,09,20,15,10,22.50
2012,09,20,15,11,22.50
2012,09,20,15,12,22.40
2012,09,20,15,13,22.50
2012,09,20,15,14,22.60
2012,09,20,15,15,22.70
2012,09,20,15,16,22.70
2012,09,20,15,17,22.70
2012,09,20,15,18,22.70
2012,09,20,15,19,22.70
2012,09,20,15,20,22.80
2012,09,20,15,21,22.70
2012,09,20,15,22,22.60
2012,09,20,15,23,22.50
2012,09,20,15,24,22.50
2012,09,20,15,25,22.50
2012,09,20,15,26,22.50
2012,09,20,15,27,22.40
2012,09,20,15,28,22.40
2012,09,20,15,29,22.40
2012,09,20,15,30,22.40
2012,09,20,15,31,22.40
2012,09,20,15,32,22.40
2012,09,20,15,33,22.50
2012,09,20,15,34,22.60
2012,09,20,15,35,22.60
2012,09,20,15,36,22.60
2012,09,20,15,37,22.60
2012,09,20,15,38,22.50
2012,09,20,15,39,22.40
2012,09,20,15,40,22.30
2012,09,20,15,41,22.30
2012,09,20,15,42,22.40
2012,09,20,15,43,22.50
2012,09,20,15,44,22.60
2012,09,20,15,45,22.80
2012,09,20,15,46,22.80
2012,09,20,15,47,22.80
2012,09,20,15,48,22.80
2012,09,20,15,49,22.80
2012,09,20,15,50,22.90
2012,09,20,15,51,23.00
2012,09,20,15,52,23.00
2012,09,20,15,53,23.00
2012,09,20,15,54,23.00
2012,09,20,15,55,23.10
2012,09,20,15,56,23.20
2012,09,20,15,57,23.30
2012,09,20,15,58,23.30
2012,09,20,15,59,23.30
2012,09,20,16,00,23.30
2012,09,20,16,01,23.30
2012,09,20,16,02,23.30
2012,09,20,16,03,23.30
2012,09,20,16,04,23.30
2012,09,20,16,05,23.30
2012,09,20,16,06,23.30
2012,09,20,16,07,23.40
2012,09,20,16,08,23.50
2012,09,20,16,09,23.60
2012,09,20,16,10,23.60
2012,09,20,16,11,23.70
2012,09,20,16,12,23.70
2012,09,20,16,13,23.70
2012,09,20,16,14,23.60
2012,09,20,16,15,23.60
2012,09,20,16,16,23.60
2012,09,20,16,17,23.60
2012,09,20,16,18,23.50
2012,09,20,16,19,23.50
2012,09,20,16,20,23.40
2012,09,20,16,21,23.40
2012,09,20,16,22,23.40
2012,09,20,16,23,23.30
2012,09,20,16,24,23.30
2012,09,20,16,25,23.30
2012,09,20,16,26,23.30
2012,09,20,16,27,23.30
2012,09,20,16,28,23.40
2012,09,20,16,29,23.40
2012,09,20,16,30,23.40
2012,09,20,16,31,23.30
2012,09,20,16,32,23.30
2012,09,20,16,33,23.20
2012,09,20,16,34,23.10
2012,09,20,16,35,23.00
2012,09,20,16,36,22.90
2012,09,20,16,37,22.80
2012,09,20,16,38,22.80
2012,09,20,16,39,22.70
2012,09,20,16,40,22.60
2012,09,20,16,41,22.60
2012,09,20,16,42,22.60
2012,09,20,16,43,22.50
2012,09,20,16,44,22.40
2012,09,20,16,45,22.30
2012,09,20,16,46,22.20
2012,09,20,16,47,22.10
2012,09,20,16,48,21.90
2012,09,20,16,49,21.70
2012,09,20,16,50,21.60
2012,09,20,16,51,21.50
2012,09,20,16,52,21.40
2012,09,20,16,53,21.30
2012,09,20,16,54,21.20
2012,09,20,16,55,21.10
2012,09,20,16,56,20.90
2012,09,20,16,57,20.80
2012,09,20,16,58,20.80
2012,09,20,16,59,20.70
2012,09,20,17,00,20.70
2012,09,20,17,01,20.60
2012,09,20,17,02,20.60
2012,09,20,17,03,20.50
2012,09,20,17,04,20.40
2012,09,20,17,05,20.40
2012,09,20,17,06,20.40
2012,09,20,17,07,20.40
2012,09,20,17,08,20.30
2012,09,20,17,09,20.30
2012,09,20,17,10,20.30
2012,09,20,17,11,20.30
2012,09,20,17,12,20.40
2012,09,20,17,13,20.40
2012,09,20,17,14,20.50
2012,09,20,17,15,20.60
2012,09,20,17,16,20.60
2012,09,20,17,17,20.60
2012,09,20,17,18,20.70
2012,09,20,17,19,20.70
2012,09,20,17,20,20.70
2012,09,20,17,21,20.70
2012,09,20,17,22,20.70
2012,09,20,17,23,20.70
2012,09,20,17,24,20.70
2012,09,20,17,25,20.70
2012,09,20,17,26,20.70
2012,09,20,17,27,20.80
2012,09,20,17,28,20.80
2012,09,20,17,29,20.80
2012,09,20,17,30,20.70
2012,09,20,17,31,20.70